Location: Lussas
(44.6119°N, 4.4726°E)
Time: 14:31:24
(UTC+00:00)

SAR-Lupe-4 - Pass Details

Date: 26 November 2020
Orbit: 481 x 484 km, 98.2° (Epoch: 09 January)

Event Time Altitude Azimuth Distance (km) Brightness Sun altitude
Rises 04:57:34 0° 170° (S) 2,528 7.5 -20.1°
Reaches altitude 10° 04:59:38 10° 173° (S) 1,654 6.5 -19.8°
Maximum altitude 05:03:10 69° 257° (WSW) 519 3.4 -19.2°
Enters shadow 05:03:54 51° 319° (NW) 612 3.7 -19.0°
